Satellite: RS-38
Catalog number: 35869
Epoch time: 10034.83581886
Element set: 121
Inclination: 098.7773 deg
RA of node: 089.4916 deg
Eccentricity: 0.0005221
Arg of perigee: 036.6579 deg
Mean anomaly: 323.4899 deg
Mean motion: 14.21974950 rev/day
Decay rate: 1.76e-06 rev/day^2
Epoch rev: 1977
Checksum: 353
/EX
More information about the Keps
mailing list